Location: Andrest
(43.3200°N, 0.0641°E)
Time: 20:17:37
(UTC+00:00)

Cosmos 2181 Rocket - Pass Details

Date: 01 December 2020
Orbit: 951 x 1015 km, 82.9° (Epoch: 20 January)

Event Time Altitude Azimuth Distance (km) Brightness Sun altitude
Rises 17:38:15 0° 192° (SSW) 3,733 7.5 -13.0°
Reaches altitude 10° 17:40:48 10° 194° (SSW) 2,783 6.8 -13.4°
Maximum altitude 17:47:12 72° 279° (W) 1,054 4.3 -14.5°
Drops below altitude 10° 17:53:33 10° 4° (N) 2,765 6.2 -15.6°
Sets 17:56:05 0° 7° (N) 3,709 6.8 -16.1°
